When you browse on this site, cookies collect data to enhance your experience and personalize the content and advertising you see.
Visit our Privacy Policy to learn more. By continuing to use the site, you agree to this use of cookies and data.
  • In Denmark
  • List of Countries
  • For 7 days
  • Water Temperature
  • Satellite Maps
  • Weather Map
  • Weather Widgets
  • user-avatar
    Login

    Hourly Weather Eisenstadt

    Today, 20 April, Saturday

    Time Temperature Precipitation Wind Pressure Humidity
    00:00 +9°C° 0 mm 2 mps 731 mmHg 66%
    01:00 +9°C° 0 mm 2 mps 731 mmHg 67%
    02:00 +8°C° 0 mm 2 mps 731 mmHg 69%
    03:00 +9°C° 0 mm 1 mps 731 mmHg 70%
    04:00 +8°C° 0 mm 1 mps 731 mmHg 72%
    05:00 +9°C° 0 mm 1 mps 731 mmHg 69%
    06:00 +10°C° 0 mm 0 mps 731 mmHg 66%
    07:00 +11°C° 0 mm 0 mps 732 mmHg 63%
    08:00 +14°C° 0 mm 1 mps 732 mmHg 55%
    09:00 +15°C° 0 mm 1 mps 732 mmHg 47%
    10:00 +17°C° 0 mm 2 mps 732 mmHg 40%
    11:00 +18°C° 0 mm 2 mps 732 mmHg 38%
    12:00 +18°C° 0 mm 2 mps 731 mmHg 35%
    13:00 +19°C° 0 mm 2 mps 731 mmHg 33%
    14:00 +19°C° 0 mm 2 mps 731 mmHg 34%
    15:00 +19°C° 0 mm 2 mps 730 mmHg 35%
    16:00 +19°C° 0 mm 2 mps 730 mmHg 35%
    17:00 +18°C° 0 mm 1 mps 729 mmHg 42%
    18:00 +14°C° 0 mm 1 mps 729 mmHg 49%
    19:00 +12°C° 0 mm 1 mps 729 mmHg 55%
    20:00 +12°C° 0 mm 1 mps 729 mmHg 57%
    21:00 +11°C° 0 mm 1 mps 729 mmHg 58%
    22:00 +10°C° 0 mm 1 mps 729 mmHg 60%
    23:00 +10°C° 0 mm 1 mps 729 mmHg 61%

    Tomorrow, 21 April, Sunday

    Time Temperature Precipitation Wind Pressure Humidity
    00:00 +10°C° 0 mm 1 mps 729 mmHg 62%
    01:00 +9°C° 0 mm 2 mps 728 mmHg 63%
    02:00 +9°C° 0 mm 1 mps 728 mmHg 64%
    03:00 +9°C° 0 mm 1 mps 728 mmHg 64%
    04:00 +9°C° 0 mm 1 mps 728 mmHg 65%
    05:00 +10°C° 0 mm 1 mps 728 mmHg 63%
    06:00 +11°C° 0 mm 1 mps 727 mmHg 61%
    07:00 +12°C° 0 mm 1 mps 727 mmHg 60%
    08:00 +14°C° 0 mm 1 mps 727 mmHg 54%
    09:00 +15°C° 0 mm 1 mps 727 mmHg 49%
    10:00 +17°C° 0 mm 2 mps 727 mmHg 44%
    11:00 +18°C° 0 mm 2 mps 727 mmHg 42%
    12:00 +18°C° 0 mm 2 mps 726 mmHg 40%
    13:00 +19°C° 0 mm 2 mps 726 mmHg 38%
    14:00 +19°C° 0 mm 2 mps 726 mmHg 40%
    15:00 +18°C° 0 mm 2 mps 725 mmHg 42%
    16:00 +18°C° 0 mm 2 mps 725 mmHg 43%
    17:00 +16°C° 0 mm 1 mps 724 mmHg 49%
    18:00 +14°C° 0 mm 1 mps 724 mmHg 54%
    19:00 +13°C° 0 mm 1 mps 724 mmHg 60%
    20:00 +12°C° 0 mm 1 mps 724 mmHg 62%
    21:00 +11°C° 0 mm 1 mps 724 mmHg 65%
    22:00 +10°C° 0 mm 1 mps 724 mmHg 67%
    23:00 +10°C° 0 mm 1 mps 724 mmHg 68%

    Day after tomorrow, 22 April, Monday

    Time Temperature Precipitation Wind Pressure Humidity
    00:00 +9°C° 0 mm 1 mps 723 mmHg 70%
    01:00 +9°C° 0 mm 1 mps 723 mmHg 71%
    02:00 +9°C° 0 mm 1 mps 723 mmHg 73%
    03:00 +7°C° 0 mm 0 mps 722 mmHg 74%
    04:00 +7°C° 0 mm 0 mps 722 mmHg 76%
    05:00 +8°C° 0 mm 0 mps 722 mmHg 73%
    06:00 +10°C° 0 mm 1 mps 721 mmHg 70%
    07:00 +11°C° 0 mm 1 mps 721 mmHg 67%
    08:00 +13°C° 0 mm 1 mps 721 mmHg 63%
    09:00 +14°C° 0 mm 2 mps 721 mmHg 58%
    10:00 +16°C° 0 mm 2 mps 721 mmHg 53%
    11:00 +17°C° 0 mm 2 mps 720 mmHg 51%
    12:00 +17°C° 0 mm 3 mps 720 mmHg 49%
    13:00 +18°C° 0 mm 3 mps 719 mmHg 46%
    14:00 +18°C° 0 mm 3 mps 719 mmHg 47%
    15:00 +18°C° 0 mm 3 mps 718 mmHg 48%
    16:00 +18°C° 0 mm 3 mps 718 mmHg 50%
    17:00 +17°C° 0 mm 3 mps 717 mmHg 56%
    18:00 +14°C° 0 mm 3 mps 717 mmHg 62%
    19:00 +13°C° 0 mm 3 mps 717 mmHg 68%
    20:00 +12°C° 0 mm 3 mps 717 mmHg 70%
    21:00 +12°C° 0 mm 3 mps 717 mmHg 73%
    22:00 +11°C° 0 mm 3 mps 717 mmHg 75%
    23:00 +11°C° 0.1 mm 3 mps 717 mmHg 77%

    23 April, Tuesday

    Time Temperature Precipitation Wind Pressure Humidity
    00:00 +11°C° 0.1 mm 3 mps 717 mmHg 80%
    01:00 +10°C° 0.1 mm 3 mps 717 mmHg 82%
    02:00 +10°C° 0.3 mm 3 mps 716 mmHg 85%
    03:00 +9°C° 0.3 mm 3 mps 716 mmHg 89%
    04:00 +9°C° 0.3 mm 3 mps 716 mmHg 92%
    05:00 +9°C° 1.3 mm 3 mps 716 mmHg 93%
    06:00 +8°C° 1.3 mm 4 mps 716 mmHg 94%
    07:00 +8°C° 1.3 mm 4 mps 716 mmHg 95%
    08:00 +8°C° 1.3 mm 4 mps 716 mmHg 95%
    09:00 +8°C° 1.3 mm 4 mps 716 mmHg 95%
    10:00 +8°C° 1.3 mm 4 mps 716 mmHg 95%
    11:00 +9°C° 0.6 mm 3 mps 716 mmHg 94%
    12:00 +9°C° 0.6 mm 3 mps 716 mmHg 94%
    13:00 +9°C° 0.6 mm 3 mps 716 mmHg 94%
    14:00 +9°C° 1 mm 2 mps 716 mmHg 95%
    15:00 +10°C° 1 mm 1 mps 715 mmHg 95%
    16:00 +10°C° 1 mm 0 mps 715 mmHg 96%
    17:00 +10°C° 0.6 mm 2 mps 715 mmHg 96%
    18:00 +11°C° 0.6 mm 3 mps 716 mmHg 96%
    19:00 +12°C° 0.6 mm 4 mps 716 mmHg 96%
    20:00 +12°C° 0.2 mm 4 mps 716 mmHg 96%
    21:00 +12°C° 0.2 mm 4 mps 716 mmHg 96%
    22:00 +11°C° 0.2 mm 4 mps 717 mmHg 96%
    23:00 +11°C° 0 mm 4 mps 717 mmHg 96%

    24 April, Wednesday

    Time Temperature Precipitation Wind Pressure Humidity
    00:00 +11°C° 0 mm 4 mps 717 mmHg 96%
    01:00 +11°C° 0 mm 4 mps 717 mmHg 96%
    02:00 +11°C° 0 mm 4 mps 717 mmHg 95%
    03:00 +11°C° 0 mm 4 mps 717 mmHg 95%
    04:00 +11°C° 0 mm 4 mps 718 mmHg 95%
    05:00 +11°C° 0 mm 4 mps 718 mmHg 93%
    06:00 +12°C° 0 mm 4 mps 718 mmHg 92%
    07:00 +12°C° 0 mm 4 mps 719 mmHg 90%
    08:00 +14°C° 0 mm 5 mps 719 mmHg 84%
    09:00 +15°C° 0 mm 5 mps 720 mmHg 78%
    10:00 +17°C° 0 mm 5 mps 720 mmHg 72%
    11:00 +19°C° 0 mm 5 mps 720 mmHg 69%
    12:00 +19°C° 0 mm 5 mps 720 mmHg 65%
    13:00 +20°C° 0 mm 5 mps 720 mmHg 61%
    14:00 +20°C° 0 mm 5 mps 720 mmHg 61%
    15:00 +20°C° 0 mm 5 mps 720 mmHg 61%
    16:00 +21°C° 0 mm 5 mps 720 mmHg 60%
    17:00 +19°C° 0 mm 5 mps 720 mmHg 67%
    18:00 +17°C° 0 mm 4 mps 720 mmHg 74%
    19:00 +15°C° 0 mm 4 mps 720 mmHg 82%
    20:00 +14°C° 0 mm 3 mps 721 mmHg 84%
    21:00 +13°C° 0 mm 3 mps 721 mmHg 87%
    22:00 +13°C° 0 mm 2 mps 721 mmHg 90%
    23:00 +12°C° 0 mm 2 mps 721 mmHg 91%

    25 April, Thursday

    Time Temperature Precipitation Wind Pressure Humidity
    00:00 +12°C° 0 mm 2 mps 721 mmHg 92%
    01:00 +10°C° 0 mm 2 mps 721 mmHg 93%
    02:00 +10°C° 0 mm 2 mps 721 mmHg 93%
    03:00 +10°C° 0 mm 2 mps 721 mmHg 94%
    04:00 +9°C° 0 mm 2 mps 721 mmHg 95%
    05:00 +10°C° 0 mm 2 mps 721 mmHg 91%
    06:00 +11°C° 0 mm 3 mps 721 mmHg 88%
    07:00 +12°C° 0 mm 3 mps 721 mmHg 84%
    08:00 +14°C° 0 mm 4 mps 721 mmHg 78%
    09:00 +17°C° 0 mm 4 mps 721 mmHg 71%
    10:00 +19°C° 0 mm 5 mps 721 mmHg 64%
    11:00 +20°C° 0 mm 6 mps 721 mmHg 60%
    12:00 +21°C° 0 mm 6 mps 721 mmHg 57%
    13:00 +22°C° 0 mm 6 mps 720 mmHg 53%
    14:00 +22°C° 0 mm 6 mps 720 mmHg 54%
    15:00 +22°C° 0 mm 6 mps 719 mmHg 55%
    16:00 +22°C° 0 mm 6 mps 719 mmHg 56%
    17:00 +20°C° 0 mm 5 mps 719 mmHg 64%
    18:00 +18°C° 0 mm 4 mps 718 mmHg 71%
    19:00 +17°C° 0 mm 3 mps 718 mmHg 79%
    20:00 +16°C° 0 mm 3 mps 718 mmHg 83%
    21:00 +14°C° 0 mm 3 mps 718 mmHg 87%
    22:00 +14°C° 0 mm 2 mps 718 mmHg 91%
    23:00 +14°C° 0 mm 2 mps 718 mmHg 92%
    Show more